[Date Prev][Date Next][Thread Prev][Thread Next] - [Date Index][Thread Index][Author Index]
2 Line ISS Keps 7-19 ~ updates yesterdays by 27 sec's ~
- Subject: [sarex] 2 Line ISS Keps 7-19 ~ updates yesterdays by 27 sec's ~
- From: "Dave Larsen PhD" <doc@xxxxxxxxxxx>
- Date: Thu, 19 Jul 2001 04:38:05 -0700
ISS
1 25544U 98067A 01200.45410194 -.00223564 00000-0 -28243-2 0 2292
2 25544 51.5671 285.3399 0012105 269.9254 189.8486 15.59488131152122
----
Via the sarex mailing list at AMSAT.ORG courtesy of AMSAT-NA.
To unsubscribe, send "unsubscribe sarex" to Majordomo@amsat.org
AMSAT Home